Regional Weather Roundup
Issued by NWS

Home | Current Version | Previous Version | Text Only | Print | Product List | Glossary On
Versions: 1 2 3 4 5 6 7 8 9 10 11 12 13 14 15 16 17 18 19 20 21 22 23 24 25 26 27 28 29 30 31 32 33 34 35 36 37 38 39 40 41 42 43 44 45 46 47 48 49 50
000
ASUS42 KFFC 230510
RWRGA
WEATHER ROUNDUP FOR GEORGIA
NATIONAL WEATHER SERVICE PEACHTREE CITY GA
1200 AM EST FRI FEB 23 2018

NOTE: "FAIR" INDICATES FEW OR NO CLOUDS BELOW 12,000 FEET WITH NO
SIGNIFICANT WEATHER AND/OR OBSTRUCTIONS TO VISIBILITY.

* = USE WITH CAUTION. THE STATIONS MARKED WITH AN ASTERISK MAY NOT
REPORT WEATHER SUCH AS PRECIPITATION, FOG, OR THUNDER AND ARE NOT
QUALITY CONTROLLED BY NWS.

THE REMARK "TC" DENOTES TEMPERATURE READING IN DEGREES CELSIUS.

GAZ001>058-230600-
NORTH GEORGIA

CITY           SKY/WX    TMP DP  RH WIND       PRES   REMARKS
ATLANTA        FAIR      66  62  87 SE5       30.39S
ATHENS         FAIR      63  61  93 CALM      30.39S
CHAMBLEE       FAIR      63  60  90 CALM      30.39S
PEACHTREE CITY FAIR      61  59  93 CALM      30.39S
ROME           FAIR      60  59  96 CALM      30.36S
WEST ATLANTA   FAIR      60  60 100 CALM      30.39R
GAINESVILLE    FAIR      64  60  87 CALM      30.42S
CARTERSVILLE   FAIR      66  62  87 S6        30.38S


CITY           SKY/WX    TMP DP  RH WIND       PRES   REMARKS
DALTON*        FAIR      61  59  94 CALM      30.39S
LAWRENCEVILLE* FAIR      60  58  92 CALM        N/A
MARIETTA       FAIR      67  60  78 CALM      30.39S
KENNESAW*      FAIR      69  61  75 S6        30.40R
CANTON*        FAIR      66  63  88 CALM      30.42R
BLAIRSVILLE*   FAIR      60  57  89 CALM      30.43S
$$

GAZ059>098-102>109-230600-
CENTRAL GEORGIA

CITY           SKY/WX    TMP DP  RH WIND       PRES   REMARKS
AUGUSTA-BUSH   FAIR      64  60  87 S6        30.40F
AUGUSTA-DANIEL FAIR      67  60  78 SE5       30.41F
COLUMBUS       FAIR      68  60  75 E3        30.37S
MACON          FAIR      60  59  96 SE7       30.39S
ROBINS AFB     CLEAR     64  61  91 S7        30.38S


CITY           SKY/WX    TMP DP  RH WIND       PRES   REMARKS
LAGRANGE*      FAIR      64  64  98 CALM      30.38S
SYLVANIA*      FAIR      63  63  97 CALM      30.43F
MILLEDGEVILLE* FAIR      61  61 100 CALM      30.40S FOG
$$

GAZ099>101-110>166-230600-
SOUTH GEORGIA

CITY           SKY/WX    TMP DP  RH WIND       PRES   REMARKS
SAVANNAH       FAIR      62  60  93 CALM      30.43F
VALDOSTA       FAIR      67  63  87 SE6       30.39S
ALMA           FAIR      63  60  90 CALM      30.41S
ST SIMONS      FAIR      66  64  93 E5        30.41F
FT STEWART     FAIR      59  57  94 CALM      30.41S VSB 7/8
ALBANY         FAIR      66  61  84 E5        30.40S
HUNTER AFB     FAIR      61  58  90 CALM      30.40F
MOODY AFB      FAIR      67  63  89 SE3       30.39S
BRUNSWICK      FOG       59  57  94 CALM      30.42F VSB 1/2


CITY           SKY/WX    TMP DP  RH WIND       PRES   REMARKS
BAINBRIDGE*    FAIR      64  64 100 CALM      30.37S
MOULTRIE*      FAIR      66  61  82 CALM      30.40S
VIDALIA*       FAIR      64  63  94 SE3       30.42F
WAYCROSS*      FAIR      64  61  90 E3        30.41S
DOUGLAS*       FAIR      64  63  94 CALM      30.43S
$$




USA.gov is the U.S. government's official web portal to all federal, state and local government web resources and services.